"2016-02-12 00:00:00",1366491,12.86,161.4,7.024,1.424,14.96,104.1334,9.86,11.48,29.92,0,110.4,13.14,10.64,123.4
"2016-02-12 00:00:30",1366492,12.98,159.6,7.182,1.396,14.33,104.0979,9.76,11.3,30,0,110.4,13.14,10.55,121.6
"2016-02-12 00:01:00",1366493,12.85,161.1,7.362,1.2,14.24,104.074,9.7,11.28,30.14,0,110.4,13.14,10.49,123.1
"2016-02-12 00:01:30",1366494,12.77,160.8,6.57,1.247,13.12,104.0505,9.64,11.08,30.01,0,110.4,13.14,10.43,122.8
"2016-02-12 00:02:00",1366495,13.43,162.8,7.043,1.336,14.12,104.0178,9.56,11.08,30.03,0,110.4,13.15,10.34,124.8
"2016-02-12 00:02:30",1366496,14.24,166.5,7.054,1.389,15.31,103.9891,9.49,11.05,30.05,0,110.4,13.14,10.27,128.5
"2016-02-12 00:03:00",1366497,14.26,168.7,7.05,1.28,15.92,103.9662,9.43,11,30.09,0,110.4,13.14,10.21,130.7
"2016-02-12 00:03:30",1366498,14.08,166.1,7.23,1.361,14.94,103.9421,9.37,10.93,30.34,0,110.4,13.15,10.15,128.1
"2016-02-12 00:04:00",1366499,13.68,162.3,6.684,1.394,13.37,103.9221,9.31,10.69,30.6,0,110.4,13.15,10.10,124.3
"2016-02-12 00:04:30",1366500,13.48,163.7,6.907,0.995,13.04,103.9096,9.28,10.64,30.93,0,110.4,13.16,10.07,125.7
"2016-02-12 00:05:00",1366501,14.68,164.2,7.209,1.547,14.25,103.8857,9.22,10.66,31.31,0,110.4,13.16,10.01,126.2
"2016-02-12 00:05:30",1366502,14.95,168,7.706,1.525,16.17,103.8706,9.18,10.64,31.01,0,110.4,13.15,9.97,130.0
"2016-02-12 00:06:00",1366503,13.96,169.7,7.908,1.43,16.67,103.8545,9.14,10.59,29.63,0,110.4,13.15,9.93,131.7
"2016-02-12 00:06:30",1366504,13.61,172.9,8.4,1.34,16.59,103.8685,9.18,10.51,29.73,0,110.4,13.15,9.96,134.9
"2016-02-12 00:07:00",1366505,12.08,169.8,10.12,1.97,14.55,103.8849,9.22,10.4,29.84,0,110.3,13.15,10.00,131.8
"2016-02-12 00:07:30",1366506,11.11,166.4,7.604,1.383,14.14,103.8968,9.25,10.31,28.97,0,110.3,13.15,10.03,128.4
"2016-02-12 00:08:00",1366507,12.1,163.7,7.013,1.548,14.73,103.9224,9.32,10.38,29.7,0,110.3,13.15,10.10,125.7
"2016-02-12 00:08:30",1366508,14.1,175,9.1,1.593,16.16,103.9354,9.35,10.53,30.36,0,110.3,13.15,10.13,137.0
"2016-02-12 00:09:00",1366509,13.67,173.6,7.377,1.441,17.12,103.9492,9.38,10.6,30.79,0,110.3,13.16,10.17,135.6
"2016-02-12 00:09:30",1366510,13.22,170.9,7.49,1.751,16.15,103.9583,9.41,10.55,29.89,0,110.3,13.16,10.19,132.9
"2016-02-12 00:10:00",1366511,14.01,171.7,11.43,1.337,15.08,103.9594,9.41,10.54,30.25,0,110.3,13.15,10.20,133.7
"2016-02-12 00:10:30",1366512,13.18,157,4.059,0.906,11.82,103.9594,9.41,10.39,30.94,0,110.3,13.16,10.20,119.0
"2016-02-12 00:11:00",1366513,13.89,166.2,8.29,1.453,14.37,103.9591,9.41,10.54,31.03,0,110.3,13.16,10.19,128.2
"2016-02-12 00:11:30",1366514,13.69,171.3,8.61,1.654,15.52,103.9382,9.36,10.59,31.15,0,110.3,13.16,10.14,133.3
"2016-02-12 00:12:00",1366515,14.52,171.6,7.152,1.244,15.25,103.9162,9.3,10.62,32.15,0,110.3,13.16,10.08,133.6
"2016-02-12 00:12:30",1366516,14.78,167.4,7.457,1.38,15.36,103.8863,9.22,10.55,31.63,0,110.2,13.15,10.01,129.4
"2016-02-12 00:13:00",1366517,11.67,173.3,9.47,1.99,15.48,103.861,9.16,10.43,30.63,0,110.3,13.15,9.94,135.3
"2016-02-12 00:13:30",1366518,12,159.1,7.867,1.389,12.77,103.864,9.17,10.33,30.65,0,110.3,13.15,9.95,121.1
"2016-02-12 00:14:00",1366519,12.11,166,6.87,1.101,13.71,103.8573,9.15,10.37,30.94,0,110.3,13.15,9.93,128.0
"2016-02-12 00:14:30",1366520,12.64,170.3,10.31,1.42,15.68,103.8515,9.13,10.36,30.67,0,110.3,13.15,9.92,132.3
"2016-02-12 00:15:00",1366521,12.55,167.1,7.515,1.684,15.9,103.8456,9.12,10.43,31.19,0,110.3,13.15,9.90,129.1
"2016-02-12 00:15:30",1366522,12.34,164.3,8.63,1.404,15.79,103.841,9.11,10.39,31.02,0,110.3,13.16,9.89,126.3
"2016-02-12 00:16:00",1366523,12.34,164.5,8.05,1.559,13.73,103.8434,9.11,10.29,31.14,0,110.3,13.15,9.90,126.5
"2016-02-12 00:16:30",1366524,11.5,167.8,8.28,1.943,13.47,103.8483,9.13,10.22,31.02,0,110.3,13.15,9.91,129.8
"2016-02-12 00:17:00",1366525,11.37,161.2,6.383,1.157,12.95,103.853,9.14,10.27,31.37,0,110.3,13.16,9.92,123.2
"2016-02-12 00:17:30",1366526,12.25,166.8,7.13,1.314,15.33,103.8471,9.12,10.3,31.7,0,110.3,13.16,9.91,128.8
"2016-02-12 00:18:00",1366527,12.36,164,8.39,1.482,15.47,103.8367,9.1,10.32,31.72,0,110.3,13.16,9.88,126.0
"2016-02-12 00:18:30",1366528,13.44,164,8.78,1.937,16.67,103.8241,9.06,10.37,31.71,0,110.3,13.16,9.85,126.0
"2016-02-12 00:19:00",1366529,11.77,165.7,7.901,1.563,16.51,103.8244,9.07,10.23,30,0,110.3,13.17,9.85,127.7
"2016-02-12 00:19:30",1366530,10.42,159.7,8.15,1.877,13.63,103.8327,9.09,10.15,30.51,0,110.3,13.17,9.87,121.7
"2016-02-12 00:20:00",1366531,10.13,153.9,4.866,1.018,11.92,103.8397,9.1,10.05,30.78,0,110.3,13.21,9.89,115.9
"2016-02-12 00:20:30",1366532,11.95,161.5,8.12,1.393,13.46,103.8403,9.11,10.16,31.26,0,110.3,13.17,9.89,123.5
"2016-02-12 00:21:00",1366533,12.9,162.6,7.495,1.349,15.55,103.8386,9.1,10.29,31.41,0,110.3,13.17,9.89,124.6
"2016-02-12 00:21:30",1366534,12.4,170.2,8.33,1.429,16.77,103.8304,9.08,10.34,31.43,0,110.3,13.18,9.86,132.2
"2016-02-12 00:22:00",1366535,10.49,166.1,8.1,1.381,16.86,103.8253,9.07,10.35,30.54,0,110.3,13.18,9.85,128.1
"2016-02-12 00:22:30",1366536,10.89,155.9,8.19,1.365,15.33,103.8253,9.07,10.22,30.5,0,110.3,13.17,9.85,117.9
"2016-02-12 00:23:00",1366537,9.71,171.1,10.77,0.959,14.23,103.827,9.07,10.1,30.03,0,110.3,13.18,9.86,133.1
"2016-02-12 00:23:30",1366538,8.83,163.5,6.085,0.524,12.73,103.8394,9.1,10.05,29.78,0,110.3,13.22,9.89,125.5
"2016-02-12 00:24:00",1366539,9.55,170.5,9.28,1.555,14.22,103.8547,9.14,10.14,29.9,0,110.3,13.18,9.93,132.5
"2016-02-12 00:24:30",1366540,10.9,170.3,8.08,1.771,16.66,103.8592,9.15,10.32,30.13,0,110.3,13.18,9.94,132.3
"2016-02-12 00:25:00",1366541,10.71,162.2,7.909,1.817,17.05,103.8612,9.16,10.38,30.26,0,110.3,13.18,9.94,124.2
"2016-02-12 00:25:30",1366542,11.84,170.2,9.81,1.636,16.62,103.8789,9.2,10.37,30.14,0,110.3,13.18,9.99,132.2
"2016-02-12 00:26:00",1366543,10.32,171.3,10.01,1.905,15.29,103.8916,9.24,10.28,30.18,0,110.3,13.18,10.02,133.3
"2016-02-12 00:26:30",1366544,9.96,161.2,4.368,0.986,13.54,103.893,9.24,10.2,29.56,0,110.3,13.23,10.02,123.2
"2016-02-12 00:27:00",1366545,8.75,166.9,6.846,1.073,14.57,103.9142,9.29,10.27,29.11,0,110.3,13.18,10.08,128.9
"2016-02-12 00:27:30",1366546,10.53,173.2,7.054,1.377,15.01,103.9314,9.34,10.31,29.2,0,110.3,13.18,10.12,135.2
"2016-02-12 00:28:00",1366547,10.32,178.3,13.36,1.098,15.05,103.9586,9.41,10.34,29.22,0,110.3,13.18,10.19,140.3
"2016-02-12 00:28:30",1366548,11.6,167.2,7.643,1.626,15.96,103.9696,9.44,10.48,29.53,0,110.3,13.18,10.22,129.2
"2016-02-12 00:29:00",1366549,10.24,170.5,14.57,1.966,16.64,103.9963,9.5,10.53,29.4,0,110.3,13.18,10.29,132.5
"2016-02-12 00:29:30",1366550,7.999,171.5,11.61,1.353,15.67,104.0022,9.52,10.5,28.57,0,110.3,13.18,10.30,133.5
"2016-02-12 00:30:00",1366551,7.206,166.9,11.21,0.883,13.84,104.0305,9.59,10.45,28.47,0,110.3,13.22,10.38,128.9
"2016-02-12 00:30:30",1366552,8.3,173.7,13.81,2.313,16.15,104.0496,9.64,10.55,28.27,0,110.2,13.18,10.43,135.7
"2016-02-12 00:31:00",1366553,9.87,160.5,11.67,0.906,14.02,104.0711,9.7,10.57,28.8,0,110.3,13.18,10.48,122.5
"2016-02-12 00:31:30",1366554,9.59,163.4,7.699,1.272,15.11,104.0828,9.73,10.66,28.85,0,110.3,13.18,10.51,125.4
"2016-02-12 00:32:00",1366555,10.06,169.5,9.51,1.696,16.26,104.0943,9.76,10.75,28.86,0,110.3,13.18,10.54,131.5
"2016-02-12 00:32:30",1366556,10.46,175.3,7.703,1.418,15.85,104.1045,9.78,10.76,29.14,0,110.2,13.18,10.57,137.3
"2016-02-12 00:33:00",1366557,7.071,198.2,16.55,2.006,15.99,104.1076,9.79,10.75,28.36,0,110.2,13.18,10.58,160.2
"2016-02-12 00:33:30",1366558,7.369,181,16.18,1.105,15.59,104.1114,9.8,10.77,28.51,0,110.2,13.18,10.59,143.0
"2016-02-12 00:34:00",1366559,7.383,168.8,5.779,1.098,12.79,104.1194,9.82,10.64,28.49,0,110.2,13.23,10.61,130.8
"2016-02-12 00:34:30",1366560,8.23,168.9,7.453,1.638,13.15,104.1209,9.82,10.73,28.6,0,110.2,13.18,10.61,130.9
"2016-02-12 00:35:00",1366561,9.78,170.7,7.331,1.517,15.01,104.1163,9.81,10.8,28.71,0,110.2,13.18,10.60,132.7
"2016-02-12 00:35:30",1366562,10.46,165.7,7.261,1.313,15.8,104.1121,9.8,10.91,28.86,0,110.2,13.19,10.59,127.7
"2016-02-12 00:36:00",1366563,10.1,158.7,7.979,1.704,15.58,104.0998,9.77,10.88,28.99,0,110.2,13.19,10.56,120.7
"2016-02-12 00:36:30",1366564,10.71,163.9,8.25,1.404,15.68,104.0969,9.76,10.91,29.12,0,110.2,13.19,10.55,125.9
"2016-02-12 00:37:00",1366565,9.25,165.6,9.31,1.536,14.19,104.0956,9.76,10.76,28.85,0,110.2,13.18,10.54,127.6
"2016-02-12 00:37:30",1366566,9.22,159.8,7.221,1.61,13.37,104.0792,9.72,10.77,28.91,0,110.2,13.19,10.50,121.8
"2016-02-12 00:38:00",1366567,11.13,170.5,16.35,1.176,15.42,104.0673,9.69,10.79,28.93,0,110.2,13.19,10.47,132.5
"2016-02-12 00:38:30",1366568,10.82,184.5,15.59,1.909,15.27,104.0637,9.68,10.76,28.66,0,110.2,13.19,10.46,146.5
"2016-02-12 00:39:00",1366569,11,160.7,7.648,1.564,14.86,104.0634,9.68,10.83,29.26,0,110.2,13.19,10.46,122.7
"2016-02-12 00:39:30",1366570,11.39,160,8.81,1.489,15.27,104.0473,9.63,10.86,29.7,0,110.2,13.18,10.42,122.0
"2016-02-12 00:40:00",1366571,11.72,152.5,7.798,1.51,15,104.0298,9.59,10.85,29.83,0,110.2,13.19,10.38,114.5
"2016-02-12 00:40:30",1366572,11.83,151.4,7.416,1.429,14.62,104.0222,9.57,10.8,30.09,0,110.2,13.19,10.36,113.4
"2016-02-12 00:41:00",1366573,11.57,155.8,8.43,1.459,13.14,103.9917,9.49,10.67,30.47,0,110.2,13.19,10.28,117.8
"2016-02-12 00:41:30",1366574,9.68,159.8,6.392,1.171,13.27,103.9635,9.42,10.63,29.95,0,110.2,13.2,10.21,121.8
"2016-02-12 00:42:00",1366575,9.95,166.7,7.574,1.727,16.02,103.9372,9.35,10.76,29.75,0,110.2,13.19,10.14,128.7
"2016-02-12 00:42:30",1366576,9.71,168.6,10.79,1.376,16.37,103.9262,9.33,10.7,29.66,0,110.2,13.19,10.11,130.6
"2016-02-12 00:43:00",1366577,8.55,154.9,9.76,1.479,14.26,103.9014,9.26,10.52,29.52,0,110.2,13.19,10.05,116.9
"2016-02-12 00:43:30",1366578,9.39,155.3,10.11,1.776,14.99,103.8943,9.24,10.55,29.77,0,110.2,13.19,10.03,117.3
"2016-02-12 00:44:00",1366579,8.6,159.6,10.29,1.419,14.46,103.8924,9.24,10.42,29.52,0,110.2,13.2,10.02,121.6
"2016-02-12 00:44:30",1366580,6.864,151.6,7.589,1.48,12.62,103.8839,9.22,10.33,29.41,0,110.2,13.24,10.00,113.6
"2016-02-12 00:45:00",1366581,9.6,168.4,16.11,1.923,15.77,103.8752,9.19,10.48,29.75,0,110.2,13.2,9.98,130.4
"2016-02-12 00:45:30",1366582,8.83,171.9,14.03,1.953,15.97,103.8757,9.2,10.55,29.83,0,110.2,13.2,9.98,133.9
"2016-02-12 00:46:00",1366583,8.15,167.9,10.84,1.157,15.25,103.8729,9.19,10.4,29.53,0,110.2,13.19,9.97,129.9
"2016-02-12 00:46:30",1366584,9.18,157.9,7.418,1.689,14.64,103.8723,9.19,10.42,29.81,0,110.2,13.19,9.97,119.9
"2016-02-12 00:47:00",1366585,8.85,161,7.975,1.625,14.32,103.873,9.19,10.4,30.1,0,110.2,13.19,9.97,123.0
"2016-02-12 00:47:30",1366586,8.27,154.7,10.18,1.156,13.45,103.8657,9.17,10.3,29.83,0,110.2,13.19,9.95,116.7
"2016-02-12 00:48:00",1366587,9.44,166.5,8.34,1.39,15.44,103.8681,9.18,10.35,29.69,0,110.2,13.19,9.96,128.5
"2016-02-12 00:48:30",1366588,9.75,181.7,13.64,1.59,15.6,103.8795,9.21,10.39,29.45,0,110.2,13.19,9.99,143.7
"2016-02-12 00:49:00",1366589,9.24,170.7,7.61,1.778,14.91,103.8854,9.22,10.43,29.65,0,110.2,13.19,10.01,132.7
"2016-02-12 00:49:30",1366590,7.954,172.7,9.31,1.289,15.39,103.8923,9.24,10.37,29.64,0,110.2,13.19,10.02,134.7
"2016-02-12 00:50:00",1366591,9.73,160,11.24,1.719,15.2,103.9023,9.26,10.37,29.78,0,110.2,13.19,10.05,122.0
"2016-02-12 00:50:30",1366592,9.5,155.4,6.423,0.995,14.08,103.9088,9.28,10.31,29.73,0,110.2,13.2,10.07,117.4
"2016-02-12 00:51:00",1366593,9.13,157.7,9.29,1.057,14.06,103.914,9.29,10.38,29.89,0,110.2,13.2,10.08,119.7
"2016-02-12 00:51:30",1366594,9.41,161.6,5.604,2.042,14.6,103.9175,9.3,10.39,30.18,0,110.2,13.2,10.09,123.6
"2016-02-12 00:52:00",1366595,9.28,162.8,7.78,1.351,14.94,103.917,9.3,10.41,30.29,0,110.2,13.2,10.09,124.8
"2016-02-12 00:52:30",1366596,9.67,160.8,8.83,1.676,14.5,103.9117,9.29,10.46,30.31,0,110.2,13.2,10.07,122.8
"2016-02-12 00:53:00",1366597,10.31,157,8.26,1.461,14.27,103.903,9.27,10.34,30.6,0,110.2,13.2,10.05,119.0
"2016-02-12 00:53:30",1366598,10.24,157.8,7.869,1.327,14.95,103.8958,9.25,10.37,30.33,0,110.2,13.21,10.03,119.8
"2016-02-12 00:54:00",1366599,9.83,153.6,7.65,1.533,13.91,103.8907,9.23,10.36,30.25,0,110.2,13.21,10.02,115.6
"2016-02-12 00:54:30",1366600,9.61,152.3,8.15,1.311,14.65,103.8877,9.23,10.39,30.11,0,110.2,13.21,10.01,114.3
"2016-02-12 00:55:00",1366601,10.82,162.1,8.07,1.234,15.22,103.8761,9.2,10.4,30.17,0,110.2,13.21,9.98,124.1
"2016-02-12 00:55:30",1366602,9.61,161.5,8.75,1.264,15.15,103.862,9.16,10.34,30.12,0,110.2,13.19,9.95,123.5
"2016-02-12 00:56:00",1366603,9.77,158.9,7.867,1.307,15.62,103.8609,9.16,10.36,30.04,0,110.2,13.2,9.94,120.9
"2016-02-12 00:56:30",1366604,9.01,160.6,10.92,1.425,14.47,103.8609,9.16,10.25,29.86,0,110.3,13.21,9.94,122.6
"2016-02-12 00:57:00",1366605,7.512,170.7,13.44,1.776,14.72,103.8615,9.16,10.25,29.4,0,110.2,13.21,9.94,132.7
"2016-02-12 00:57:30",1366606,7.876,158,6.919,1.306,13.96,103.8618,9.16,10.17,29.22,0,110.2,13.2,9.94,120.0
"2016-02-12 00:58:00",1366607,8.21,163,8.61,1.597,14.73,103.8623,9.16,10.35,29.65,0,110.2,13.21,9.95,125.0
"2016-02-12 00:58:30",1366608,10.11,156.5,9.41,1.631,15.11,103.8719,9.19,10.28,29.98,0,110.2,13.21,9.97,118.5
"2016-02-12 00:59:00",1366609,9.36,152.2,9.35,1.447,14.75,103.8728,9.19,10.31,30.39,0,110.2,13.21,9.97,114.2
"2016-02-12 00:59:30",1366610,8.83,161.9,8.53,1.782,15.68,103.8711,9.18,10.32,29.85,0,110.2,13.21,9.97,123.9
"2016-02-12 01:00:00",1366611,5.527,176.7,16.46,1.097,14.23,103.877,9.2,10.26,29.43,0,110.2,13.2,9.98,138.7
"2016-02-12 01:00:30",1366612,6.805,149.8,5.491,0.816,12.37,103.8827,9.21,10.17,29.52,0,110.2,13.26,10.00,111.8
"2016-02-12 01:01:00",1366613,8.68,162.1,8.12,1.341,15.35,103.8838,9.22,10.35,29.89,0,110.2,13.21,10.00,124.1
"2016-02-12 01:01:30",1366614,8.22,160.2,13.33,1.495,14.91,103.888,9.23,10.32,29.63,0,110.2,13.21,10.01,122.2
"2016-02-12 01:02:00",1366615,8.29,163.6,8.07,1.348,14.61,103.892,9.24,10.31,29.81,0,110.2,13.21,10.02,125.6
"2016-02-12 01:02:30",1366616,9.09,162.7,10.1,1.487,15.18,103.8954,9.25,10.33,29.94,0,110.2,13.21,10.03,124.7
"2016-02-12 01:03:00",1366617,9.59,156.8,7.467,1.614,14.28,103.8954,9.25,10.36,30.3,0,110.2,13.21,10.03,118.8
"2016-02-12 01:03:30",1366618,10.18,155.9,7.293,1.368,12.23,103.8886,9.23,10.29,30.73,0,110.2,13.21,10.01,117.9
"2016-02-12 01:04:00",1366619,10.52,165.7,8.2,1.107,13.23,103.8688,9.18,10.38,31.31,0,110.2,13.21,9.96,127.7
"2016-02-12 01:04:30",1366620,11.03,165.9,7.593,1.422,14.26,103.8386,9.1,10.41,31.42,0,110.2,13.21,9.89,127.9
"2016-02-12 01:05:00",1366621,10.46,165.9,6.678,1.457,14.99,103.8008,9,10.37,31.27,0,110.2,13.2,9.79,127.9
"2016-02-12 01:05:30",1366622,10.53,171.2,7.942,1.492,15.08,103.7599,8.9,10.33,31.27,0,110.2,13.2,9.68,133.2
"2016-02-12 01:06:00",1366623,7.845,175.9,11.26,1.289,15.07,103.7271,8.82,10.16,30.65,0,110.2,13.2,9.60,137.9
"2016-02-12 01:06:30",1366624,5.783,157.1,7.909,0.682,12.18,103.7,8.75,9.96,30.14,0,110.2,13.24,9.53,119.1
"2016-02-12 01:07:00",1366625,6.533,171,10.89,1.863,12.63,103.6924,8.73,10.01,30.37,0,110.1,13.21,9.51,133.0
"2016-02-12 01:07:30",1366626,10.29,162.8,6.599,1.193,14.17,103.6913,8.72,10.04,31.27,0,110.2,13.21,9.51,124.8
"2016-02-12 01:08:00",1366627,9.04,161.2,10.4,1.927,15.44,103.6631,8.65,10.1,31.44,0,110.2,13.21,9.43,123.2
"2016-02-12 01:08:30",1366628,10.64,160.7,7.25,1.453,15.55,103.6582,8.64,10.06,31.62,0,110.2,13.21,9.42,122.7
"2016-02-12 01:09:00",1366629,11.48,159.7,6.976,1.276,14.98,103.6396,8.59,10.01,31.92,0,110.2,13.21,9.37,121.7
"2016-02-12 01:09:30",1366630,9.44,159.2,6.231,1.615,12.79,103.6247,8.55,9.84,31.65,0,110.2,13.21,9.34,121.2
"2016-02-12 01:10:00",1366631,9.07,161.1,7.257,1.214,12.9,103.6074,8.51,9.76,31.8,0,110.2,13.22,9.29,123.1
"2016-02-12 01:10:30",1366632,8.69,165.6,8.8,1.711,15.05,103.5922,8.47,9.84,31.34,0,110.2,13.21,9.25,127.6
"2016-02-12 01:11:00",1366633,8.81,160.3,7.043,1.321,14.7,103.5911,8.47,9.79,31.43,0,110.2,13.22,9.25,122.3
"2016-02-12 01:11:30",1366634,8.68,159.6,8.53,1.456,14.74,103.5922,8.47,9.78,31.42,0,110.2,13.22,9.25,121.6
"2016-02-12 01:12:00",1366635,9.84,160.9,7.207,1.46,15.59,103.5919,8.47,9.78,31.57,0,110.2,13.22,9.25,122.9
"2016-02-12 01:12:30",1366636,8.44,160.2,5.745,1.187,13.36,103.5931,8.47,9.65,31.55,0,110.2,13.22,9.26,122.2
"2016-02-12 01:13:00",1366637,7.113,167.9,5.817,1.116,13.61,103.594,8.48,9.67,31.16,0,110.2,13.22,9.26,129.9
"2016-02-12 01:13:30",1366638,6.871,173.8,18.34,1.915,14.37,103.5966,8.48,9.67,30.99,0,110.2,13.22,9.26,135.8
"2016-02-12 01:14:00",1366639,5.743,207.3,32.64,2.026,14.76,103.6309,8.57,9.62,30.18,0,110.2,13.22,9.35,169.3
"2016-02-12 01:14:30",1366640,8.69,173.4,8.31,1.804,15.48,103.6899,8.72,9.8,30.42,0,110.2,13.22,9.50,135.4
"2016-02-12 01:15:00",1366641,6.219,164.4,9.27,1.82,15.06,103.7477,8.87,9.82,30.02,0,110.2,13.22,9.65,126.4
"2016-02-12 01:15:30",1366642,7.569,163.5,11.34,1.765,15.22,103.7757,8.94,9.94,30.12,0,110.2,13.22,9.72,125.5
"2016-02-12 01:16:00",1366643,6.14,163,10.72,0.419,12.25,103.7748,8.94,9.8,30.48,0,110.2,13.27,9.72,125.0
"2016-02-12 01:16:30",1366644,6.608,178.6,11.83,1.522,14.05,103.7769,8.94,9.93,30.07,0,110.2,13.22,9.73,140.6
"2016-02-12 01:17:00",1366645,7.571,178.1,11.31,1.297,15.76,103.7797,8.95,10.02,30.12,0,110.2,13.22,9.73,140.1
"2016-02-12 01:17:30",1366646,5.149,180.9,6.428,1.177,15.02,103.7941,8.99,10.04,29.83,0,110.2,13.22,9.77,142.9
"2016-02-12 01:18:00",1366647,5.572,191.9,10.35,1.705,15.91,103.8052,9.02,10.08,29.81,0,110.2,13.22,9.80,153.9
"2016-02-12 01:18:30",1366648,7.79,162.5,7.169,1.155,14.04,103.8152,9.04,9.99,30.01,0,110.2,13.22,9.83,124.5
"2016-02-12 01:19:00",1366649,5.964,170.7,10.41,2.428,13.97,103.8157,9.04,10.01,30.05,0,110.2,13.22,9.83,132.7
"2016-02-12 01:19:30",1366650,5.459,158.9,6.507,1.18,12.26,103.8209,9.06,9.94,29.58,0,110.2,13.26,9.84,120.9
"2016-02-12 01:20:00",1366651,6.837,154.4,6.078,1.666,14.2,103.8427,9.11,10.11,30.14,0,110.2,13.22,9.90,116.4
"2016-02-12 01:20:30",1366652,6.609,157,9.33,1.674,16.91,103.854,9.14,10.23,29.69,0,110.2,13.22,9.92,119.0
"2016-02-12 01:21:00",1366653,3.097,150,18.73,1.653,16.02,103.8552,9.14,10.2,29.25,0,110.2,13.21,9.93,112.0
"2016-02-12 01:21:30",1366654,4.713,160.6,17.87,1.74,14.09,103.869,9.18,10.04,28.9,0,110.2,13.22,9.96,122.6
"2016-02-12 01:22:00",1366655,7.351,169.1,9.35,1.856,15.12,103.8766,9.2,10.24,29.48,0,110.2,13.22,9.98,131.1
"2016-02-12 01:22:30",1366656,6.423,170.4,7.185,1.119,13.66,103.8908,9.23,10.15,29.48,0,110.2,13.22,10.02,132.4
"2016-02-12 01:23:00",1366657,4.567,203,8.72,0.637,13.49,103.8968,9.25,10.09,28.42,0,110.2,13.26,10.03,165.0
"2016-02-12 01:23:30",1366658,4.286,238,18.12,1.193,13.72,103.9217,9.31,10.12,28.18,0,110.2,13.22,10.10,200.0
"2016-02-12 01:24:00",1366659,5.491,211.8,37.36,1.898,15.95,103.9407,9.36,10.36,28.15,0,110.2,13.22,10.15,173.8
"2016-02-12 01:24:30",1366660,4.798,163.2,24.3,1.785,16.26,103.9584,9.41,10.35,28.82,0,110.2,13.22,10.19,125.2
"2016-02-12 01:25:00",1366661,5.305,171.2,17.21,1.584,14.58,103.9624,9.42,10.33,28.37,0,110.2,13.23,10.20,133.2
"2016-02-12 01:25:30",1366662,7.591,168.8,12.38,1.331,14.21,103.963,9.42,10.44,29.33,0,110.2,13.23,10.20,130.8
"2016-02-12 01:26:00",1366663,6.126,193.4,12.22,1.833,14.78,103.9653,9.43,10.4,29.09,0,110.2,13.23,10.21,155.4
"2016-02-12 01:26:30",1366664,4.856,178.3,11.93,0.86,12.55,103.9763,9.45,10.28,28.67,0,110.2,13.27,10.24,140.3
"2016-02-12 01:27:00",1366665,6.745,173.9,8.73,1.093,13.36,103.9879,9.48,10.37,29.12,0,110.2,13.23,10.27,135.9
"2016-02-12 01:27:30",1366666,7.93,171.8,9.01,1.301,15.56,103.9834,9.47,10.56,29.45,0,110.2,13.23,10.26,133.8
"2016-02-12 01:28:00",1366667,7.242,172,13.81,1.306,16.2,103.9786,9.46,10.55,29.27,0,110.2,13.23,10.24,134.0
"2016-02-12 01:28:30",1366668,7.515,169.4,9.02,1.702,14.29,103.9729,9.44,10.5,29.38,0,110.2,13.23,10.23,131.4
"2016-02-12 01:29:00",1366669,6.721,170.5,8.41,1.343,14.13,103.9648,9.42,10.56,29.65,0,110.2,13.23,10.21,132.5
"2016-02-12 01:29:30",1366670,7.251,185.3,9.43,1.128,12.88,103.9645,9.42,10.36,29.18,0,110.2,13.23,10.21,147.3
"2016-02-12 01:30:00",1366671,6.172,166,9.9,0.627,11.93,103.956,9.4,10.34,29.24,0,110.2,13.28,10.19,128.0
"2016-02-12 01:30:30",1366672,7.24,184.5,9.89,1.333,15.38,103.945,9.37,10.49,29.22,0,110.2,13.23,10.16,146.5
"2016-02-12 01:31:00",1366673,7.451,183,10.21,1.604,15.93,103.9365,9.35,10.55,29.33,0,110.2,13.23,10.14,145.0
"2016-02-12 01:31:30",1366674,9.06,174.1,8.75,1.447,16.03,103.9309,9.34,10.59,29.49,0,110.2,13.23,10.12,136.1
"2016-02-12 01:32:00",1366675,9.24,163.4,7.808,1.574,14.74,103.9227,9.32,10.5,29.79,0,110.2,13.23,10.10,125.4
"2016-02-12 01:32:30",1366676,7.504,165.3,9.04,1.587,13.34,103.9038,9.27,10.38,29.7,0,110.2,13.23,10.05,127.3
"2016-02-12 01:33:00",1366677,7.111,166.4,4.865,0.542,11.85,103.8919,9.24,10.27,29.46,0,110.2,13.28,10.02,128.4
"2016-02-12 01:33:30",1366678,6.585,171.3,16.03,1.83,13.19,103.8775,9.2,10.33,29.41,0,110.2,13.23,9.98,133.3
"2016-02-12 01:34:00",1366679,6.447,178.9,16.92,1.486,16.02,103.8639,9.17,10.49,29.43,0,110.2,13.23,9.95,140.9
"2016-02-12 01:34:30",1366680,6.362,191.3,14.93,1.47,17.07,103.8631,9.16,10.44,29.34,0,110.2,13.23,9.95,153.3
"2016-02-12 01:35:00",1366681,6.458,186.9,10.9,1.171,14.77,103.8631,9.16,10.36,29.18,0,110.2,13.23,9.95,148.9
"2016-02-12 01:35:30",1366682,7.731,176.1,18.19,1.798,14.56,103.8614,9.16,10.31,29.13,0,110.2,13.23,9.94,138.1
"2016-02-12 01:36:00",1366683,4.79,186.3,6.742,0.678,12.45,103.8594,9.15,10.15,29.14,0,110.2,13.27,9.94,148.3
"2016-02-12 01:36:30",1366684,7.159,174.3,4.979,0.623,12.36,103.8606,9.16,10.17,29.12,0,110.2,13.26,9.94,136.3
"2016-02-12 01:37:00",1366685,8.33,173.1,11.25,1.578,14.96,103.8617,9.16,10.32,29.36,0,110.2,13.23,9.94,135.1
"2016-02-12 01:37:30",1366686,9.21,188.2,18.47,2.098,16.1,103.8546,9.14,10.37,29.56,0,110.2,13.22,9.93,150.2
"2016-02-12 01:38:00",1366687,7.237,213.4,11.97,1.502,16.72,103.8631,9.16,10.37,28.7,0,110.2,13.23,9.95,175.4
"2016-02-12 01:38:30",1366688,5.668,205.5,13.31,1.753,15.99,103.8637,9.17,10.33,28.42,0,110.2,13.22,9.95,167.5
"2016-02-12 01:39:00",1366689,5.481,166.5,17.14,1.248,12.89,103.8707,9.18,10.13,28.57,0,110.2,13.22,9.97,128.5
"2016-02-12 01:39:30",1366690,5.709,202,10.79,1.679,12.38,103.8795,9.21,10.13,28.66,0,110.2,13.27,9.99,164.0
"2016-02-12 01:40:00",1366691,6.312,201,9.97,1.67,13.34,103.8738,9.19,10.24,29.64,0,110.2,13.22,9.98,163.0
"2016-02-12 01:40:30",1366692,8.35,203.9,10.65,1.901,15.62,103.8718,9.19,10.33,29.1,0,110.2,13.23,9.97,165.9
"2016-02-12 01:41:00",1366693,8.69,191,10.6,1.608,15.96,103.8789,9.2,10.4,29.05,0,110.2,13.23,9.99,153.0
"2016-02-12 01:41:30",1366694,6.509,187.3,17.63,1.524,16.3,103.8795,9.21,10.37,29.23,0,110.2,13.23,9.99,149.3
"2016-02-12 01:42:00",1366695,5.858,198.9,10.2,1.274,14.53,103.88,9.21,10.25,28.78,0,110.2,13.23,9.99,160.9
"2016-02-12 01:42:30",1366696,6.131,191.8,5.999,0.62,12.02,103.88,9.21,10.14,28.88,0,110.2,13.28,9.99,153.8
"2016-02-12 01:43:00",1366697,5.299,197.4,5.601,0.887,12.33,103.88,9.21,10.15,28.92,0,110.2,13.23,9.99,159.4
"2016-02-12 01:43:30",1366698,6.498,195.5,7.048,1.572,15.14,103.88,9.21,10.36,28.89,0,110.2,13.23,9.99,157.5
"2016-02-12 01:44:00",1366699,7.419,186.2,17.7,1.411,15.22,103.88,9.21,10.28,29.02,0,110.2,13.23,9.99,148.2
"2016-02-12 01:44:30",1366700,6.339,193.8,8.1,1.399,16.06,103.88,9.21,10.4,28.85,0,110.2,13.23,9.99,155.8
"2016-02-12 01:45:00",1366701,7.899,199.7,9.79,1.594,15.43,103.88,9.21,10.4,29.1,0,110.2,13.23,9.99,161.7
"2016-02-12 01:45:30",1366702,6.888,197,9.29,1.159,12.97,103.88,9.21,10.27,29.16,0,110.2,13.23,9.99,159.0
"2016-02-12 01:46:00",1366703,6.745,186.5,7.755,1.049,12.36,103.88,9.21,10.21,29.21,0,110.2,13.23,9.99,148.5
"2016-02-12 01:46:30",1366704,7.817,194.7,10.21,1.615,14.53,103.8792,9.21,10.3,29.22,0,110.2,13.23,9.99,156.7
"2016-02-12 01:47:00",1366705,8.58,191.4,10.41,1.46,13.36,103.8704,9.18,10.32,29.64,0,110.2,13.23,9.97,153.4
"2016-02-12 01:47:30",1366706,9.34,214.5,18.11,1.732,15.27,103.8631,9.16,10.39,29.68,0,110.2,13.23,9.95,176.5
"2016-02-12 01:48:00",1366707,7.348,215.5,17.5,1.922,15.39,103.8631,9.16,10.38,28.83,0,110.2,13.23,9.95,177.5
"2016-02-12 01:48:30",1366708,8.3,203.4,14.57,1.519,13.69,103.8546,9.14,10.28,29.56,0,110.2,13.23,9.93,165.4
"2016-02-12 01:49:00",1366709,7.374,209,16.14,1.333,13.25,103.8315,9.08,10.15,29.02,0,110.2,13.23,9.87,171.0